[[[{"header":{"parameterUnit":"kt","parameterCategory":2,"dx":1,"dy":1,"la1":30.253999710083008,"la2":30.299108505249023,"lo1":-89.0895004272461,"lo2":-89.04439544677734,"nx":28,"ny":28,"refTime":"2022-10-31T21:00:00:Z","depth":0,"parameterNumber":1,"parameterNumberName":"U-component_of_WINDS"},"data":[-3.4773,-3.4889,-3.4845,-3.4959,-3.4939,-3.501,-3.5022,-3.5033,-3.5031,-3.5113,-3.5153,-3.5123,-3.5106,-3.5145,-3.5188,-3.5174,-3.5198,-3.5271,-3.5243,-3.495,-3.4907,-3.4866,-3.4836,-3.5275,-3.5276,-3.5553,-3.5556,-3.5558,-3.4567,-3.4548,-3.4594,-3.4609,-3.4649,-3.4552,-3.4558,-3.4599,-3.4665,-3.4663,-3.4699,-3.4768,-3.4818,-3.4775,-3.4817,-3.4873,-3.4832,-3.4888,-3.4886,-3.4886,-3.457,-3.4538,-3.4921,-3.4921,-3.4921,-3.4921,-3.4921,-3.4921,-3.418,-3.425,-3.4233,-3.4282,-3.4277,-3.4289,-3.435,-3.4308,-3.4354,-3.4389,-3.4328,-3.4404,-3.4395,-3.4423,-3.4422,-3.4482,-3.4412,-3.4461,-3.4474,-3.4489,-3.4513,-3.4126,-3.4486,-3.4485,-3.4483,-3.4482,-3.4481,0,-3.3884,-3.3842,-3.3881,-3.391,-3.3943,-3.396,-3.3969,-3.4005,-3.3902,-3.3945,-3.4003,-3.403,-3.4083,-3.4136,-3.4164,-3.4152,-3.406,-3.4044,-3.4078,-3.4112,-3.4139,-3.4131,-3.3624,-3.4035,-3.4031,-3.4028,-3.4026,-3.4024,-3.3495,-3.358,-3.3539,-3.3573,-3.3566,-3.3623,-3.3648,-3.3549,-3.3581,-3.3579,-3.3647,-3.3696,-3.373,-3.3833,-3.3787,-3.3828,-3.3785,-3.3947,-3.3791,-3.3819,-3.3793,-3.3791,-3.3801,-3.3981,-3.3987,-3.3991,-3.3995,0,-3.3281,-3.3205,-3.3323,-3.3273,-3.3263,-3.336,-3.3318,-3.3385,-3.3336,-3.3422,-3.3437,-3.3363,-3.3423,-3.3348,-3.3402,-3.3363,-3.3528,-3.3481,-3.3531,-3.3519,-3.3661,-3.3651,-3.4123,-3.4182,-3.3721,-3.3725,-3.3729,0,-3.2921,-3.3037,-3.2918,-3.2991,-3.3117,-3.3013,-3.3142,-3.3113,-3.31,-3.3166,-3.3045,-3.3111,-3.3004,-3.306,-3.3001,-3.3122,-3.3131,-3.3109,-3.3093,-3.3123,-3.3127,-3.3143,-3.3124,-3.3047,-3.3044,-3.3042,-3.304,0,-3.2598,-3.2667,-3.2783,-3.2788,-3.2746,-3.2804,-3.2789,-3.2773,-3.2799,-3.282,-3.2836,-3.2869,-3.2889,-3.2918,-3.2842,-3.2739,-3.2986,-3.2829,-3.2965,-3.2967,-3.3027,-3.3025,-3.3458,-3.3037,-3.3037,-3.3036,-3.3035,0,-3.2297,-3.2316,-3.2494,-3.2456,-3.2479,-3.2556,-3.2579,-3.2626,-3.2618,-3.2584,-3.2601,-3.2512,-3.2606,-3.2457,-3.2588,-3.2476,-3.2504,-3.2489,-3.2498,-3.2506,-3.2342,-3.2602,-3.3017,-3.306,-3.2509,-3.2505,-3.2501,0,-3.195,-3.2107,-3.2017,-3.219,-3.2252,-3.211,-3.2194,-3.2188,-3.215,-3.2199,-3.2156,-3.2215,-3.2086,-3.2094,-3.2168,-3.2129,-3.2275,-3.2106,-3.2188,-3.2192,-3.2199,-3.2578,-3.2661,-3.2933,-3.2443,-3.2449,-3.2454,0,-3.1672,-3.1615,-3.1652,-3.1652,-3.1625,-3.1676,-3.1771,-3.1803,-3.1841,-3.1847,-3.1927,-3.2004,-3.1912,-3.1926,-3.1857,-3.1939,-3.2173,-3.1829,-3.1827,-3.1898,-3.2406,-3.2485,-3.2531,-3.2109,-3.2116,-3.2122,-3.2408,0,-3.1243,-3.1309,-3.1403,-3.1406,-3.1432,-3.1533,-3.1448,-3.1487,-3.1416,-3.1372,-3.1487,-3.1462,-3.1498,-3.1527,-3.1459,-3.1668,-3.1622,-3.1523,-3.1375,-3.1623,-3.1716,-3.1754,-3.1243,-3.1239,-3.1234,-3.1231,0,0,-3.0933,-3.1025,-3.0922,-3.1007,-3.1024,-3.0874,-3.099,-3.0989,-3.0991,-3.1007,-3.0922,-3.1029,-3.1013,-3.1162,-3.1233,-3.1245,-3.1277,-3.1193,-3.1504,-3.1535,-3.1564,-3.1664,-3.1704,-3.1224,-3.1222,-3.1221,-3.122,0,-3.0758,-3.0738,-3.0851,-3.0844,-3.0829,-3.0774,-3.0802,-3.0762,-3.0739,-3.0847,-3.0726,-3.0784,-3.0871,-3.0872,-3.0884,-3.1171,-3.1079,-3.1188,-3.1372,-3.1466,-3.1502,-3.1534,-3.1641,-3.168,-3.121,-3.121,-3.1211,0,-3.0472,-3.044,-3.0484,-3.0509,-3.0498,-3.0565,-3.0387,-3.0464,-3.0513,-3.0348,-3.0459,-3.0435,-3.0428,-3.0577,-3.064,-3.0566,-3.0904,-3.0781,-3.0804,-3.0811,-3.0898,-3.0942,-3.0981,-3.047,-3.0467,-3.0465,0,0,-3.0334,-3.0393,-3.0327,-3.0465,-3.0466,-3.0386,-3.0412,-3.0344,-3.0337,-3.0336,-3.0302,-3.0303,-3.0352,-3.0388,-3.0429,-3.0604,-3.0597,-3.0693,-3.0728,-3.0756,-3.0779,-3.0874,-3.0917,-3.0457,-3.0457,-3.0456,0,0,-3.0269,-3.0196,-3.0124,-3.0272,-3.0269,-3.0215,-3.0304,-3.0216,-3.0244,-3.0223,-3.0113,-3.0109,-3.0246,-3.0227,-3.0123,-3.0376,-3.0231,-3.0254,-3.0384,-3.0427,-3.0461,-3.0465,-2.9941,0,0,0,0,0,-3.0046,-3.0204,-3.014,-3.0151,-3.0182,-3.025,-3.0254,-3.0165,-3.0064,-3.0137,-3.0095,-2.9991,-3.0149,-3.0054,-3.007,-3.0188,-3.0348,-3.0367,-3.0385,-3.0594,-3.0639,-3.0678,0,0,0,0,0,0,-3.0049,-3.0064,-3.0135,-3.009,-3.0095,-3.0244,-3.0053,-3.0033,-3.0054,-3.0032,-3.0003,-2.999,-2.9918,-3.0041,-3.0056,-3.017,-2.9935,-3.0355,-3.0372,-3.0386,-3.0609,-3.0647,-3.0679,0,0,0,0,0,-3.0052,-3.0063,-3.0135,-3.0086,-3.0092,-3.0011,-3.0046,-3.0028,-3.0043,-2.9977,-2.9962,-2.9974,-2.9924,-2.993,-3.0049,-3.0165,-2.9924,-2.993,-3.0366,-3.0379,-3.039,-3.0628,0,0,0,0,0,0,-3.0054,-3.0049,-3.0134,-3.0133,-3.0019,-3.0001,-2.9995,-3.0025,-2.9985,-2.9971,-2.9942,-2.9926,-2.993,-2.9933,-2.994,-3.0169,-2.9915,-2.9921,-2.9925,-3.0376,-3.0386,-3.0395,0,0,0,0,0,0,-3.0042,-3.0048,-3.0133,-3.0053,-3.0041,-2.9993,-2.9987,-3.0075,-2.9986,-2.9952,-2.9936,-2.9936,-2.9922,-2.9937,-2.9941,-3.0082,-2.9908,-2.9914,-2.9918,-2.9921,-3.0384,-3.0392,0,0,0,0,0,0,-3.0043,-3.0049,-3.0052,-3.0044,-3.0033,-3.0009,-3.0069,-3.0106,-2.9914,-2.9956,-2.9894,-2.9885,-2.9929,-2.993,-2.9943,-3.0083,-3.0082,-2.9909,-2.9913,-2.9915,-2.9917,0,0,0,0,0,0,0,-3.0044,-3.0026,-3.0143,-3.0036,-3.0026,-3.0118,-3.0118,-3.0117,-2.9912,-2.9904,-2.9896,-2.9889,-2.9875,-2.9881,-2.9888,-3.0083,0,0,-2.9908,-2.9911,0,0,0,0,0,0,0,0,-3.0022,-3.0025,-3.0143,-3.0143,-3.0143,-3.0118,-3.0118,-3.0117,-2.9911,-2.9904,-2.9898,-2.9892,-2.9877,-2.9882,-2.9887,0,0,0,0,0,0,0,0,0,0,0,0,0,0,0,-3.0143,-3.0143,0,-3.0118,-3.0118,-3.0117,-2.991,-2.9905,-2.9899,-2.9895,-2.9878,-2.9882,-2.9887,0,0,0,0,0,0,0,0,0,0,0,0,0,0,0,0,0,0,0,0,0,0,0,0,0,0,0,0,0,0,0,0,0,0,0,0,0,0,0,0,0,0,0,0,0,0,0,0,0,0,0,0,0,0,0,0,0,0,0,0,0,0,0,0,0,0,0,0,0]}],[{"header":{"parameterUnit":"kt","parameterCategory":2,"dx":1,"dy":1,"la1":30.253999710083008,"la2":30.299108505249023,"lo1":-89.0895004272461,"lo2":-89.04439544677734,"nx":28,"ny":28,"refTime":"2022-10-31T21:00:00:Z","depth":0,"parameterNumber":2,"parameterNumberName":"V-component_of_WINDS"},"data":[-4.0709,-4.0801,-4.0809,-4.0919,-4.0945,-4.1021,-4.1051,-4.1091,-4.1125,-4.1218,-4.1272,-4.129,-4.1327,-4.1395,-4.1455,-4.1462,-4.1487,-4.1515,-4.1518,-4.1386,-4.1368,-4.1351,-4.1329,-4.152,-4.152,-4.1654,-4.1655,-4.1656,-4.0614,-4.0641,-4.07,-4.0764,-4.0816,-4.0794,-4.0843,-4.0887,-4.0957,-4.0998,-4.1052,-4.1135,-4.1201,-4.1228,-4.1293,-4.1338,-4.1331,-4.1355,-4.1352,-4.1358,-4.1217,-4.1194,-4.1359,-4.1359,-4.1359,-4.1359,-4.1359,-4.1359,-4.0444,-4.0499,-4.0542,-4.0607,-4.064,-4.0683,-4.0737,-4.0756,-4.0815,-4.0883,-4.088,-4.0959,-4.1002,-4.1083,-4.1112,-4.1174,-4.1149,-4.1177,-4.1185,-4.1192,-4.1199,-4.1008,-4.1185,-4.1185,-4.1184,-4.1184,-4.1184,0,-4.0322,-4.0325,-4.0382,-4.0442,-4.049,-4.0537,-4.0581,-4.0615,-4.0622,-4.067,-4.0741,-4.0783,-4.0866,-4.0933,-4.0995,-4.102,-4.1002,-4.1,-4.102,-4.1023,-4.1018,-4.1023,-4.0794,-4.0995,-4.0993,-4.0992,-4.0991,-4.0991,-4.0152,-4.0214,-4.0261,-4.0301,-4.0326,-4.039,-4.0429,-4.043,-4.0472,-4.0527,-4.0576,-4.0643,-4.0697,-4.0809,-4.083,-4.0893,-4.0885,-4.0961,-4.0894,-4.0894,-4.0887,-4.0884,-4.089,-4.0974,-4.0976,-4.0978,-4.0979,0,-4.0056,-4.0066,-4.0165,-4.0205,-4.0217,-4.0283,-4.0317,-4.0372,-4.0384,-4.0461,-4.048,-4.0499,-4.0568,-4.0577,-4.0658,-4.0661,-4.0772,-4.0762,-4.0757,-4.0756,-4.0826,-4.082,-4.105,-4.108,-4.0882,-4.0884,-4.0885,0,-3.9915,-3.9996,-4.0007,-4.0064,-4.0156,-4.0154,-4.0245,-4.0264,-4.0299,-4.036,-4.034,-4.0398,-4.04,-4.046,-4.0464,-4.0556,-4.057,-4.0578,-4.0579,-4.0581,-4.058,-4.0603,-4.0594,-4.0575,-4.0574,-4.0573,-4.0572,0,-3.9763,-3.9864,-3.9956,-3.9981,-4.003,-4.0074,-4.0097,-4.0136,-4.0174,-4.0225,-4.025,-4.031,-4.0343,-4.039,-4.0394,-4.0349,-4.0507,-4.0445,-4.0515,-4.0515,-4.0549,-4.0547,-4.0748,-4.057,-4.057,-4.057,-4.0569,0,-3.965,-3.9701,-3.9832,-3.9873,-3.99,-3.996,-4.0018,-4.0072,-4.0115,-4.0121,-4.0161,-4.0148,-4.0228,-4.0166,-4.0277,-4.0216,-4.025,-4.0265,-4.027,-4.0278,-4.0208,-4.0321,-4.0511,-4.0532,-4.0285,-4.0283,-4.0281,0,-3.9475,-3.9609,-3.9608,-3.9733,-3.9796,-3.9769,-3.9836,-3.9874,-3.9887,-3.9943,-3.9958,-4.0022,-3.9978,-3.9999,-4.0052,-4.007,-4.0149,-4.006,-4.0143,-4.0146,-4.0133,-4.0308,-4.0334,-4.0469,-4.0251,-4.0254,-4.0256,0,-3.9339,-3.9397,-3.9419,-3.9447,-3.9496,-3.9548,-3.9625,-3.9688,-3.9725,-3.9769,-3.9834,-3.9924,-3.9894,-3.9929,-3.9924,-3.998,-4.0096,-3.994,-3.9941,-3.9969,-4.0235,-4.026,-4.0283,-4.0081,-4.0085,-4.0088,-4.0232,0,-3.9169,-3.9236,-3.9296,-3.9357,-3.9398,-3.9476,-3.9483,-3.9526,-3.9517,-3.9529,-3.9624,-3.9657,-3.972,-3.9747,-3.9739,-3.9862,-3.9843,-3.981,-3.975,-3.9864,-3.9912,-3.9932,-3.9678,-3.9677,-3.9675,-3.9674,0,0,-3.8998,-3.9095,-3.9089,-3.9163,-3.9197,-3.9167,-3.925,-3.928,-3.9341,-3.9366,-3.9333,-3.9463,-3.9491,-3.9606,-3.9642,-3.9667,-3.9691,-3.965,-3.981,-3.9825,-3.9839,-3.989,-3.991,-3.9671,-3.9671,-3.967,-3.967,0,-3.8937,-3.8964,-3.9045,-3.9076,-3.9121,-3.9129,-3.9148,-3.9187,-3.9198,-3.9291,-3.9264,-3.9322,-3.9426,-3.9459,-3.9489,-3.9636,-3.9613,-3.9655,-3.9732,-3.9795,-3.9812,-3.9827,-3.9881,-3.99,-3.9666,-3.9667,-3.9667,0,-3.8805,-3.8834,-3.8873,-3.8949,-3.8978,-3.9043,-3.8982,-3.9052,-3.9101,-3.9063,-3.9155,-3.9174,-3.9218,-3.9325,-3.9374,-3.9345,-3.9542,-3.948,-3.949,-3.9495,-3.9557,-3.9577,-3.9596,-3.9356,-3.9355,-3.9354,0,0,-3.8751,-3.8813,-3.8843,-3.8936,-3.8956,-3.8968,-3.9003,-3.8997,-3.9037,-3.9053,-3.9076,-3.9116,-3.9176,-3.9216,-3.9272,-3.9389,-3.9398,-3.9442,-3.9457,-3.9469,-3.9481,-3.9545,-3.9566,-3.935,-3.935,-3.9349,0,0,-3.8726,-3.8763,-3.8747,-3.8855,-3.8894,-3.8929,-3.8986,-3.8966,-3.9018,-3.9009,-3.9003,-3.9014,-3.9113,-3.9133,-3.9076,-3.9251,-3.9192,-3.9206,-3.9235,-3.9253,-3.9268,-3.9261,-3.9018,0,0,0,0,0,-3.8666,-3.8759,-3.8743,-3.8762,-3.8857,-3.8937,-3.895,-3.8946,-3.8905,-3.895,-3.8966,-3.8939,-3.9101,-3.9051,-3.907,-3.9133,-3.9296,-3.9305,-3.9314,-3.9379,-3.9399,-3.9415,0,0,0,0,0,0,-3.8673,-3.8696,-3.8741,-3.878,-3.8801,-3.8934,-3.8863,-3.8864,-3.89,-3.8893,-3.8936,-3.894,-3.8939,-3.904,-3.9058,-3.9118,-3.9012,-3.9299,-3.9307,-3.9315,-3.9386,-3.9402,-3.9415,0,0,0,0,0,-3.8679,-3.8698,-3.885,-3.8779,-3.8797,-3.8815,-3.8859,-3.886,-3.8887,-3.8912,-3.8915,-3.8881,-3.8941,-3.8955,-3.9051,-3.911,-3.9,-3.9006,-3.9305,-3.9311,-3.9317,-3.9394,0,0,0,0,0,0,-3.8683,-3.8699,-3.8854,-3.8859,-3.8743,-3.8807,-3.8817,-3.8856,-3.8904,-3.8908,-3.8856,-3.8851,-3.8943,-3.8954,-3.8965,-3.9108,-3.899,-3.8997,-3.9001,-3.9309,-3.9314,-3.9319,0,0,0,0,0,0,-3.8689,-3.8704,-3.8857,-3.8812,-3.8812,-3.8801,-3.8809,-3.889,-3.8905,-3.8845,-3.8842,-3.8853,-3.8926,-3.8954,-3.8962,-3.9088,-3.8982,-3.8989,-3.8993,-3.8996,-3.9314,-3.9318,0,0,0,0,0,0,-3.8695,-3.8708,-3.881,-3.8811,-3.8811,-3.8872,-3.8871,-3.8969,-3.8866,-3.8844,-3.8856,-3.8852,-3.8927,-3.8935,-3.896,-3.9082,-3.9086,-3.8982,-3.8987,-3.899,-3.8992,0,0,0,0,0,0,0,-3.8701,-3.8615,-3.8821,-3.881,-3.8809,-3.8911,-3.8912,-3.8914,-3.8865,-3.8861,-3.8857,-3.8854,-3.8946,-3.8953,-3.896,-3.9078,0,0,-3.8982,-3.8985,0,0,0,0,0,0,0,0,-3.8609,-3.8613,-3.8821,-3.8822,-3.8824,-3.8911,-3.8912,-3.8913,-3.8864,-3.8861,-3.8858,-3.8855,-3.8948,-3.8953,-3.8959,0,0,0,0,0,0,0,0,0,0,0,0,0,0,0,-3.8821,-3.8822,0,-3.8911,-3.8912,-3.8913,-3.8864,-3.8861,-3.8859,-3.8857,-3.8949,-3.8954,-3.8959,0,0,0,0,0,0,0,0,0,0,0,0,0,0,0,0,0,0,0,0,0,0,0,0,0,0,0,0,0,0,0,0,0,0,0,0,0,0,0,0,0,0,0,0,0,0,0,0,0,0,0,0,0,0,0,0,0,0,0,0,0,0,0,0,0,0,0,0,0]}]]]